Simultaneous Nadir Overpasses (SNOs) Predictions

Prediction of SNOs between TERRA and METOP-C Satellite Orbit:

Table of predicted SNOs for the next 14.0 days since TLE Epoch: 12/31/2022
Index Date (TERRA) Time (TERRA) Lat,Lon (TERRA) SZA (TERRA ) Date (METOP-C) Time (METOP-C) Lat,Lon (METOP-C) SZA (METOP-C ) Distance(km) Time Diff (sec)
1 01/02/2023 17:28:40 80.94, -46.38 105.32 01/02/2023 17:27:54 80.94, -46.55 105.29 3.07 46
2 01/02/2023 18:18:01 -80.99, 121.87 74.60 01/02/2023 18:18:31 -80.98, 121.78 74.60 1.65 30
3 01/05/2023 09:40:16 80.95, 70.85 105.05 01/05/2023 09:39:31 80.96, 71.00 105.05 2.67 45
4 01/05/2023 10:29:38 -80.97,-121.24 74.93 01/05/2023 10:30:10 -80.97,-121.37 74.92 2.26 32
5 01/08/2023 01:51:51 80.95,-172.07 104.69 01/08/2023 01:51:09 80.94,-172.24 104.66 3.11 42
6 01/08/2023 02:41:13 -80.97, -4.16 75.28 01/08/2023 02:41:47 -80.97, -4.21 75.27 1.03 34
7 01/10/2023 18:03:27 80.94, -55.15 104.27 01/10/2023 18:02:47 80.94, -55.18 104.25 0.58 40
8 01/10/2023 18:52:48 -80.99, 113.12 75.65 01/10/2023 18:53:24 -80.99, 113.25 75.62 2.34 36
9 01/13/2023 10:15:02 80.94, 61.97 103.82 01/13/2023 10:14:25 80.94, 61.82 103.79 2.64 37



Historial Predications of SNOs between TERRA and METOP-C
